Air Resources Laboratory banner image
Air Resources Laboratory web site National Oceanic and Atmospheric Administration (NOAA)

mt roundup


Office: TFX

ASUS45 KTFX 231810
RWRMT
MONTANA REGIONAL WEATHER ROUNDUP
NATIONAL WEATHER SERVICE GREAT FALLS MT
1200 PM MDT WED MAY 23 2018

NOTE: "FAIR" INDICATES FEW OR NO CLOUDS BELOW 12000 FEET WITH NO
SIGNIFICANT WEATHER AND/OR OBSTRUCTIONS TO VISIBILITY.

MTZ001>007-043-231900-
WEST OF THE DIVIDE

CITY           SKY/WX    TMP DP  RH WIND       PRES   REMARKS
KALISPELL      FAIR      75  46  35 S3        29.84F
MISSOULA       FAIR      67  50  54 VRB3      29.85F
BUTTE          FAIR      57  45  64 CALM      29.95S
MULLAN PASS    FAIR      60  41  49 VRB7      29.95S
ANACONDA         N/A     63  46  55 CALM      29.92S
DEER LODGE       N/A     61  52  72 CALM      29.94R
HAMILTON         N/A     64  48  55 MISG      29.88F
RONAN            N/A     70  46  43 VRB6      29.86F
$$

MTZ008-052>055-231900-
SOUTHWEST MONTANA

CITY           SKY/WX    TMP DP  RH WIND       PRES   REMARKS
BOZEMAN        LGT RAIN  55  52  89 CALM      29.93R
DILLON         CLOUDY    54  47  77 CALM      29.94S
ENNIS          LGT RAIN  52  50  93 S3        29.98S
W YELLOWSTONE  LGT RAIN  45  43  93 SW9G15    29.99S
$$

MTZ009-010-012-014-046-048-049-054-231900-
EAST SLOPES AND CENTRAL MONTANA

CITY           SKY/WX    TMP DP  RH WIND       PRES   REMARKS
CUT BANK       FAIR      72  43  35 SE7       29.91F
GREAT FALLS    CLOUDY    63  51  65 CALM      29.91F
MALMSTROM AFB  PTSUNNY   60  51  71 CALM      29.92R
HELENA         PTSUNNY   65  50  58 VRB3      29.89F
AUGUSTA        PTSUNNY   63  48  57 NE8       29.93F
BOWMANS CRNR   PTSUNNY   60  49  68 NE3       29.91S
CHOTEAU          N/A     66  48  52 VRB5      29.94S
FAIRFIELD      PTSUNNY   65  48  54 N5        29.91S
POWER          PTSUNNY   64  49  58 NE5       29.91S
RAYNESFORD     LGT RAIN  57  53  86 CALM      29.93S
ULM            LGT RAIN  59  53  78 E3        29.92S
WHITE SULPHUR    N/A     52  50  93 NW5       29.93F
$$

MTZ011-013-016-021-045-047-050-051-231900-
NORTH CENTRAL MONTANA

CITY           SKY/WX    TMP DP  RH WIND       PRES   REMARKS
HAVRE          FAIR      74  50  42 N3        29.86F
LEWISTOWN      RAIN      54  53  97 E5        29.94S
N BAR RANCH    LGT RAIN  55  52  88 CALM      29.96F
CHINOOK          N/A     73  54  49 E5        29.87S
DENTON         LGT RAIN  59  55  87 SW9       29.89F
GEYSER         LGT RAIN  57  55  91 E8        29.94R
GRASS RANGE    RAIN      55  53  92 CALM      29.91S
JUDITH GAP     LGT RAIN  53  50  89 N12       29.93F
STANFORD       LGT RAIN  55  53  91 S6        29.95S
WINIFRED       LGT RAIN  59  56  88 W5        29.92R
$$

MTZ017>020-022>027-061-062-231900-
NORTHEAST MONTANA

CITY           SKY/WX    TMP DP  RH WIND       PRES   REMARKS
GLASGOW        TSTM      65  57  75 S9        29.90R
GLENDIVE       CLOUDY    65  59  81 E8        29.89F
JORDAN           N/A     61  58  90 NE10      29.88F
MALTA          CLOUDY    70  54  56 SE13      29.87S
SIDNEY         LGT RAIN  69  62  78 CALM      29.88S
WOLF POINT     LGT RAIN  65  61  87 S6        29.88F
PLENTYWOOD       N/A     66  61  82 CALM      29.91F
POPLAR           N/A     64  59  82 NE8       29.88S
SCOBEY           N/A     73  51  45 S2        29.91R
$$

MTZ028>42-056>058-231900-
SOUTHCENTRAL AND SOUTHEAST MONTANA

CITY           SKY/WX    TMP DP  RH WIND       PRES   REMARKS
BAKER          FAIR      70  60  70 SE10      29.89F
BILLINGS       CLOUDY    61  57  87 NE10      29.88F
LIVINGSTON     LGT RAIN  55  51  86 NW5       29.91F
MILES CITY     CLOUDY    65  59  81 W3        29.87S
BIG TIMBER     PTSUNNY   54  54 100 NE6       29.91F FOG
EKALAKA          N/A     70  54  56 SE7       29.89S
HARLOWTON      PTSUNNY   56  52  85 N10       29.91F
LAUREL           N/A     57  55  94 N7        29.89F FOG
$$

REGIONAL REPORTS...DAKOTAS

CITY           SKY/WX    TMP DP  RH WIND       PRES   REMARKS
WILLISTON      PTSUNNY   76  61  59 SE9       29.88F
MINOT          FAIR      79  59  50 E18       29.92F
DICKINSON      PTSUNNY   69  62  78 SE10      29.90F
BEACH          CLOUDY    68  63  83 SE14      29.92F
CROSBY         PTSUNNY   73  57  56 SE16G22   29.93R
TIOGA          FAIR      73  66  78 E18       29.92F
WATFORD CITY   FAIR      72  61  68 SE16G22   29.89S
BISMARCK       FAIR      79  63  57 SE13      29.91F
GRAND FORKS    PTSUNNY   83  61  47 SE16G23   29.97F
FARGO          FAIR      82  62  50 S20G37    29.99S
BUFFALO SD       N/A     74  57  55 S12G21    29.83S
RAPID CITY     FAIR      71  60  68 SE9       29.92S
$$

REGIONAL REPORTS...WYOMING/IDAHO/WASHINGTON

CITY           SKY/WX    TMP DP  RH WIND       PRES   REMARKS
GILLETTE       FAIR      71  52  50 S15G22    29.91F
SHERIDAN       PTSUNNY   67  55  65 SE3       29.88F
BUFFALO WY     FAIR      71  46  40 S24G33    29.91F
CODY           FAIR      57  47  69 S8        29.95R
YELLOWSTONE LA   N/A     33  32  96 CALM      30.09R
IDAHO FALLS    LGT RAIN  55  51  86 CALM      29.98R
SALMON         PTSUNNY   61  47  59 NW3       29.89F
BOISE          FAIR      73  51  46 VRB6      29.85S
SPOKANE        FAIR      77  45  32 NE8       29.79F
$$

REGIONAL REPORTS...ALBERTA

CITY           SKY/WX    TMP DP  RH WIND       PRES   REMARKS
CALGARY        MOSUNNY   77  39  25 S8        29.90S
EDMONTON       MOSUNNY   82  43  24 E9        29.85F
FORT MCMURRAY  SUNNY     86  41  20 VRB8      29.81F
HIGH LEVEL     PTSUNNY   72  48  43 S3        29.78S
LETHBRIDGE     MOSUNNY   75  46  35 VRB2      29.88F
LLOYDMINSTER   MOSUNNY   79  45  29 S8G17     29.90F
MEDICINE HAT   MOSUNNY   81  41  24 E7        29.85F
MILK RIVER       N/A     73  41  31 E7          N/A
PEACE RIVER    MOSUNNY   81  46  30 E3        29.77F
WATERTON GATE    N/A     72  39  30 E9          N/A
$$

REGIONAL REPORTS...SASKATCHEWAN

CITY           SKY/WX    TMP DP  RH WIND       PRES   REMARKS
CORONACH         N/A     68  55  64 E16G22      N/A
CYPRESS HILLS    N/A     73  36  25 SE8         N/A
ESTEVAN        CLOUDY    75  55  50 SE13      29.91F
MOOSE JAW        N/A     81  45  28 SE15G21     N/A
PRINCE ALBERT  MOSUNNY   79  52  38 E7        29.94F
REGINA         PTSUNNY   77  52  41 E9        29.91F
ROCKGLEN         N/A     72  54  53 SE14G20     N/A
SASKATOON      MOSUNNY   79  50  36 E8        29.92F
SWIFT CURRENT  PTSUNNY   77  41  27 E8G21     29.89F
VAL MARIE        N/A     77  39  25 SE15G21     N/A
$$